Date,TemperatureHighF,TemperatureAvgF,TemperatureLowF,DewpointHighF,DewpointAvgF,DewpointLowF,HumidityHigh,HumidityAvg,HumidityLow,PressureMaxIn,PressureMinIn,WindSpeedMaxMPH,WindSpeedAvgMPH,GustSpeedMaxMPH,PrecipitationSumIn
2013-8-1,91,76,66,-100,-100,-100,0,0,100,0.00,40.00,5,1,10,0.01
2013-8-2,83,76,71,-100,-100,-100,0,0,100,0.00,40.00,12,5,22,0.00
2013-8-3,84,75,67,-100,-100,-100,0,0,100,0.00,40.00,12,5,17,0.00
2013-8-4,80,72,61,-100,-100,-100,0,0,100,0.00,40.00,7,3,10,0.00
2013-8-5,79,74,69,-100,-100,-100,0,0,100,0.00,40.00,15,7,19,0.00
2013-8-6,85,77,70,-100,-100,-100,0,0,100,0.00,40.00,14,5,16,0.00
2013-8-7,88,80,74,-100,-100,-100,0,0,100,0.00,40.00,12,5,16,0.01
2013-8-8,82,74,65,-100,-100,-100,0,0,100,0.00,40.00,9,5,11,0.01
2013-8-9,82,74,68,-100,-100,-100,0,0,100,0.00,40.00,5,2,6,0.00
2013-8-10,85,75,64,-100,-100,-100,0,0,100,0.00,40.00,11,5,15,0.00
2013-8-11,83,74,62,-100,-100,-100,0,0,100,0.00,40.00,9,4,12,0.00
2013-8-12,83,75,67,-100,-100,-100,0,0,100,0.00,40.00,9,3,14,0.00
2013-8-13,79,70,62,-100,-100,-100,0,0,100,0.00,40.00,10,4,16,0.00
2013-8-14,81,66,53,-100,-100,-100,0,0,100,0.00,40.00,4,2,8,0.00
2013-8-15,72,62,60,-100,-100,-100,0,0,100,0.00,40.00,7,2,13,0.00
2013-8-16,77,67,58,-100,-100,-100,0,0,100,0.00,40.00,8,4,14,0.00
2013-8-17,78,68,56,-100,-100,-100,0,0,100,0.00,40.00,8,2,11,0.00
2013-8-18,82,71,58,-100,-100,-100,0,0,100,0.00,40.00,6,2,7,0.00
2013-8-19,84,70,63,-100,-100,-100,0,0,100,0.00,40.00,12,3,16,0.00
2013-8-20,85,76,68,-100,-100,-100,0,0,100,0.00,40.00,13,6,16,0.00
2013-8-21,89,80,70,-100,-100,-100,0,0,100,0.00,40.00,10,5,14,0.00
2013-8-22,89,79,72,-100,-100,-100,0,0,100,0.00,40.00,10,3,13,0.00
2013-8-23,92,79,71,-100,-100,-100,0,0,100,0.00,40.00,9,3,10,0.00
2013-8-24,88,78,70,-100,-100,-100,0,0,100,0.00,40.00,11,6,15,0.00
2013-8-25,89,81,72,-100,-100,-100,0,0,100,0.00,40.00,12,6,15,0.00
2013-8-26,95,83,71,-100,-100,-100,0,0,100,0.00,40.00,6,4,12,0.00
2013-8-27,96,82,75,-100,-100,-100,0,0,100,0.00,40.00,8,4,15,0.00
2013-8-28,99,93,82,-100,-100,-100,0,0,100,0.00,40.00,6,2,11,0.00
2013-8-29,98,84,73,-100,-100,-100,0,0,100,0.00,40.00,7,2,8,0.00
2013-8-30,103,89,77,-100,-100,-100,0,0,100,0.00,40.00,6,3,11,0.00
2013-8-31,98,86,80,-100,-100,-100,0,0,100,0.00,40.00,11,4,12,0.00